Location: Stara Lesna
(49.1528°N, 20.2911°E)
Time: 02:40:24
(UTC+02:00)

CZ-4C R/B - Pass Details

Date: 13 July 2020
Orbit: 632 x 1370 km, 63.4° (Epoch: 11 August)

Event Time Altitude Azimuth Distance (km) Brightness Sun altitude
Rises 01:43:44 0° 309° (NW) 3,948 6.0 -17.8°
Reaches altitude 10° 01:47:03 10° 294° (WNW) 3,104 5.2 -17.7°
Maximum altitude 01:52:16 21° 251° (WSW) 2,540 4.3 -17.5°
Enters shadow 01:54:34 18° 229° (SW) 2,727 4.3 -17.4°
